{"data":{"norad_id":61531,"intl_designator":"2024-183Y","name":"STARLINK-32358","alt_names":[],"object_type":"PAYLOAD","status":"ACTIVE","operator":null,"country":"US","launch_date":"2024-10-15","launch_site_code":"AFETR","launch_vehicle":null,"mission":null,"orbit_class":"UNKNOWN","rcs_meters":null,"size_class":null,"mass_kg":null,"dimensions":null,"purposes":["comms"],"wikipedia_slug":null,"has_3d_model":false,"image_url":null,"decayed_at":null,"tle_current":{"epoch":"2026-05-25T03:39:31.659264Z","epoch_age_seconds":65898,"freshness":"FRESH","line1":"1 61531U 24183Y   26145.15244976  .00001073  00000+0  34082-4 0  9991","line2":"2 61531  53.1596 144.8460 0000881  91.1639 268.9468 15.42165930 91391","mean_motion":15.4216593,"eccentricity":8.81e-5,"inclination_deg":53.1596,"raan_deg":144.846,"arg_perigee_deg":91.1639,"mean_anomaly_deg":268.9468,"bstar":3.4082e-5,"rev_number":9139,"period_min":93.375166185911,"perigee_km":439.11752306809,"apogee_km":440.31882915012,"semimajor_km":6817.8551761091,"source":"CELESTRAK","updated_at":"2026-05-25T13:38:19.396785Z"}}}